GFSFLT2_sfc_temp_006.txt.gz
Temp
44 46 45 45 47 48 47 46 47 47 47 46 46 46 46 46 46 47 47 47 47 48 48 49 49 50 51
41 42 43 45 44 43 45 47 47 46 45 45 45 45 45 45 45 45 45 45 45 46 46 47 48 49 50
39 43 43 42 41 43 43 43 45 44 44 44 44 44 44 44 44 45 44 44 44 44 45 45 46 47 48
38 36 38 41 41 40 38 41 40 43 43 43 43 43 43 44 43 42 42 42 43 43 43 44 44 44 46
33 35 37 38 37 38 36 37 38 40 40 41 42 42 42 42 42 41 41 42 42 42 42 43 43 43 45
33 34 35 37 37 36 33 31 29 40 38 36 41 39 41 42 41 41 41 41 41 41 41 41 42 43 44
34 35 34 36 33 31 32 31 31 36 36 32 39 37 41 42 40 40 40 40 40 41 41 41 41 42 42
37 37 36 36 36 35 33 32 34 37 37 29 37 36 40 40 40 40 40 40 40 40 40 41 41 42 42
38 38 38 38 37 34 30 28 27 31 36 33 34 33 35 37 41 42 42 41 40 39 39 39 40 41 41
37 37 37 37 37 36 32 26 26 24 35 29 30 31 27 37 40 39 40 41 41 41 40 39 39 37 37
34 35 36 37 36 35 33 28 25 25 33 30 27 28 27 28 34 38 39 40 41 40 40 40 40 38 34
31 31 32 31 32 32 31 30 31 28 30 29 26 27 26 27 27 36 38 39 38 36 36 38 39 40 41
28 28 30 31 30 31 31 32 31 32 32 31 29 29 28 26 27 30 32 35 36 35 35 34 34 34 33
28 29 31 31 30 31 29 29 28 29 33 33 32 30 28 30 29 28 32 30 36 35 34 34 36 36 35
27 26 27 29 28 30 29 28 26 26 28 32 33 33 33 31 28 32 34 35 35 34 32 33 36 36 35
26 26 25 25 26 28 28 27 25 26 27 30 31 31 32 35 39 34 34 33 34 34 33 32 33 37 37
25 25 25 26 25 25 26 26 26 27 28 31 30 28 26 25 34 39 32 32 32 33 34 33 31 33 34

GFSFLT2_sfc_temp_009.txt.gz
Temp
43 45 44 43 45 46 45 45 45 47 48 48 47 47 47 47 47 47 48 48 48 49 49 49 49 50 51
40 40 41 43 43 42 43 46 44 46 47 47 47 46 46 46 46 46 47 47 47 47 47 48 48 49 49
36 40 40 40 39 41 41 42 45 45 45 45 45 45 45 46 46 46 46 46 45 45 45 46 46 47 48
34 34 35 38 39 37 36 38 38 42 42 43 44 44 45 45 44 44 44 44 44 45 44 44 44 45 46
32 32 33 34 34 35 34 34 35 37 36 37 38 38 39 42 42 42 43 44 44 43 43 44 43 44 44
31 31 32 34 34 33 31 28 26 36 34 33 36 35 37 38 42 43 43 43 43 43 43 43 43 43 43
33 33 32 33 32 29 30 29 28 32 32 29 35 33 37 40 42 42 42 42 43 43 43 42 42 43 43
36 35 35 34 32 33 32 30 31 33 34 26 33 31 36 36 40 41 42 43 43 44 44 43 42 41 42
39 39 40 40 39 34 28 27 26 29 33 29 30 30 31 32 36 42 43 42 42 43 43 44 44 42 40
35 36 37 37 39 36 32 25 25 23 31 27 27 28 24 32 33 34 35 39 41 42 43 44 43 38 37
33 33 34 34 35 33 32 29 25 24 30 29 25 25 25 24 30 32 33 34 35 37 40 42 42 41 35
30 29 29 28 29 30 30 30 30 28 30 29 25 25 24 23 24 31 32 33 33 33 34 38 40 40 40
27 27 28 28 28 28 30 31 30 31 31 30 28 28 27 25 25 26 29 32 33 32 35 35 34 34 33
27 28 29 27 26 28 27 27 26 27 30 31 31 30 27 27 28 27 30 27 32 34 34 34 35 36 35
26 26 26 26 26 27 27 26 24 25 26 29 31 31 31 29 27 29 30 31 33 33 33 31 34 36 35
25 24 24 24 24 26 26 25 24 25 25 28 28 28 29 31 37 31 31 30 32 32 32 31 31 35 37
24 24 24 24 24 23 24 24 23 25 26 28 28 26 24 23 31 38 29 29 30 31 33 32 31 33 35

GFSFLT2_sfc_temp_012.txt.gz
Temp
37 38 35 36 40 41 41 41 41 46 47 48 48 48 48 48 48 48 48 49 48 49 49 49 49 50 50
34 35 34 37 38 36 40 43 41 45 47 47 46 46 46 46 47 47 47 47 47 47 48 49 49 50 50
31 34 34 35 34 36 37 37 40 43 44 44 44 45 45 46 46 46 46 46 46 46 46 46 47 47 48
30 30 31 33 33 31 31 34 34 39 40 41 42 43 43 44 43 43 43 44 45 45 46 45 45 46 47
30 30 29 30 29 30 30 31 32 33 32 33 34 35 35 39 40 41 42 44 45 45 45 46 46 45 45
30 29 29 29 29 29 28 27 25 33 27 30 33 32 33 35 40 42 42 43 44 44 44 45 45 45 45
30 30 29 30 28 27 28 28 27 31 30 27 32 30 33 36 39 41 41 41 42 43 44 45 45 45 45
33 33 32 35 34 33 31 29 30 31 31 24 31 29 32 33 38 39 40 42 43 44 44 43 44 44 45
39 39 39 39 38 34 27 25 25 28 31 27 27 27 29 29 32 38 40 41 40 41 42 42 43 44 43
31 32 34 32 37 32 27 23 23 22 29 25 25 26 23 30 29 32 31 36 38 39 41 41 41 38 37
29 29 30 30 30 30 29 26 24 23 30 29 25 25 24 23 28 30 31 32 32 33 37 39 40 40 35
28 27 26 26 27 27 28 27 28 27 29 29 25 25 24 23 23 29 31 31 30 30 31 36 38 40 41
25 24 25 26 26 26 26 27 27 28 30 29 27 26 26 24 24 26 28 30 32 29 31 32 33 35 33
25 26 27 26 24 25 24 24 23 24 29 29 28 28 25 26 26 26 28 26 31 32 32 33 34 35 34
24 24 25 25 24 25 24 24 22 22 24 27 28 28 28 27 25 27 28 29 31 31 30 30 32 34 35
23 23 22 22 22 24 25 22 22 23 23 25 25 25 27 29 34 28 29 29 30 31 31 28 30 34 36
22 22 22 22 24 22 22 22 22 23 23 25 25 25 22 22 30 38 29 29 30 29 30 31 29 32 34

GFSFLT2_sfc_temp_015.txt.gz
Temp
32 33 31 33 36 38 39 37 39 45 46 46 47 47 47 47 48 48 48 49 49 49 50 50 50 51 51
30 32 31 34 34 33 37 40 38 42 45 45 45 45 45 46 46 47 47 47 47 47 48 49 50 49 50
29 32 32 33 32 33 34 35 37 42 43 43 43 43 44 44 45 45 45 45 45 46 46 47 47 48 48
28 28 30 32 30 29 30 32 33 37 39 40 41 41 42 42 42 42 42 42 43 44 45 45 45 46 47
25 28 29 29 28 30 28 30 31 32 32 31 32 33 34 37 38 39 40 42 43 44 44 45 45 46 46
28 27 27 29 29 28 28 26 24 32 27 30 32 31 32 33 38 40 41 41 42 43 43 44 45 45 45
28 27 27 29 28 26 28 28 27 30 30 27 31 29 32 35 38 39 40 41 41 42 43 44 45 45 46
30 30 30 33 33 32 30 28 29 31 31 24 30 28 31 32 37 38 39 40 41 42 43 42 43 44 44
39 39 39 38 37 32 25 23 23 26 30 26 27 26 28 29 31 37 39 40 40 40 40 41 42 42 42
29 31 33 30 36 30 26 22 22 21 28 24 25 26 22 28 29 30 30 35 37 38 39 40 40 37 36
28 29 29 29 29 29 28 24 22 21 28 28 24 24 24 23 28 30 30 30 31 32 36 37 38 38 34
27 26 26 24 25 26 27 26 26 24 26 26 23 24 23 22 22 28 29 30 29 28 29 34 37 38 39
24 23 24 25 25 25 25 26 25 27 28 27 25 25 24 22 22 24 26 28 30 28 28 31 32 32 31
23 25 26 24 24 25 23 24 23 23 28 28 26 26 24 24 24 24 26 24 28 29 31 32 33 34 33
23 23 24 24 23 24 23 23 22 22 23 26 28 27 26 25 23 25 25 26 28 29 30 29 31 32 32
22 21 21 21 21 23 24 22 21 22 22 24 24 24 25 28 31 25 27 27 29 29 30 28 28 32 34
20 20 20 21 23 21 21 22 21 22 23 24 25 24 21 20 30 38 29 29 29 29 29 29 28 31 33

GFSFLT2_sfc_temp_018.txt.gz
Temp
29 31 30 31 34 35 36 35 36 43 44 45 45 46 46 47 47 48 48 48 49 50 50 50 51 51 52
27 28 29 31 31 30 35 38 36 40 43 44 45 45 45 45 46 46 46 47 47 47 48 48 50 49 51
28 28 29 30 30 30 31 32 36 40 42 42 43 43 43 44 44 44 44 44 45 45 46 46 47 47 49
27 25 25 30 27 27 29 32 31 36 38 39 41 42 42 42 42 42 41 42 43 44 44 45 45 46 47
24 25 28 28 27 29 28 29 30 32 31 30 31 32 33 37 38 39 39 41 43 44 44 44 45 45 46
20 26 27 27 28 27 27 25 24 32 27 30 32 31 32 32 37 39 41 42 42 43 43 43 43 44 45
28 27 26 28 27 24 26 27 26 30 29 26 30 28 32 34 38 39 40 40 41 42 43 43 43 44 44
29 29 28 31 32 32 29 27 28 29 29 22 29 27 30 31 37 38 39 40 40 41 42 43 42 43 43
39 39 39 39 38 31 24 22 22 25 29 25 25 26 28 29 31 36 38 40 40 40 40 40 41 42 41
28 30 32 30 35 30 24 20 20 21 26 21 25 24 22 26 29 28 30 35 37 38 39 39 40 37 35
27 27 28 28 28 28 27 22 22 21 28 27 23 23 23 22 27 29 29 30 30 31 35 37 38 37 33
25 25 25 23 24 25 26 25 26 24 26 25 22 21 21 21 21 27 28 29 28 27 28 32 36 38 39
23 22 23 23 24 23 24 25 25 26 28 27 25 24 23 21 21 23 25 27 28 27 28 27 27 29 30
23 24 25 23 22 24 22 23 22 23 27 28 27 25 23 23 23 22 25 23 26 27 27 28 29 31 32
22 23 23 23 22 23 22 22 21 21 22 25 27 28 27 25 22 24 25 25 26 26 27 27 29 30 31
21 20 20 20 20 22 23 21 19 21 21 23 24 24 25 28 31 24 25 25 27 29 29 27 28 32 33
19 19 19 19 22 19 20 20 20 21 22 23 24 24 21 20 29 37 29 29 30 30 30 29 28 30 33

GFSFLT2_sfc_temp_021.txt.gz
Temp
28 30 29 30 32 32 34 33 34 41 43 44 44 45 46 46 47 48 48 48 48 49 50 50 51 52 52
26 27 27 30 29 28 34 37 35 39 42 43 44 44 45 45 46 46 46 47 47 48 48 49 49 50 50
26 27 27 27 27 29 29 30 34 38 41 41 42 43 43 44 44 44 44 44 45 45 45 46 47 48 49
26 24 25 28 27 26 27 30 30 35 37 38 40 41 41 42 42 42 41 42 43 43 44 45 45 46 47
24 22 24 27 27 29 26 28 29 30 30 30 29 32 33 37 38 39 39 40 42 43 44 45 44 44 45
18 24 26 26 26 26 26 24 23 29 27 29 31 30 32 32 37 39 40 42 42 43 43 44 43 43 45
28 26 27 28 28 25 25 25 27 29 28 25 30 28 31 33 38 39 40 40 41 42 42 43 44 43 44
29 29 29 30 30 29 29 27 28 29 28 21 28 27 30 30 36 38 39 40 41 41 42 43 43 43 43
39 39 39 39 38 31 23 22 21 25 28 25 25 26 28 29 31 36 38 40 40 41 41 41 41 41 40
28 29 31 29 35 29 21 18 21 20 26 21 24 25 21 26 28 27 30 35 37 38 39 39 40 37 35
26 26 27 27 27 27 27 19 21 21 28 27 22 23 22 21 26 28 29 29 29 31 35 36 37 37 32
24 24 23 23 23 24 25 24 25 23 26 25 22 19 20 20 20 27 28 28 28 27 27 31 35 36 38
22 21 21 22 22 22 23 24 24 24 27 26 25 24 23 21 21 22 24 27 27 26 26 26 26 27 25
22 23 24 22 21 22 21 22 21 22 25 25 25 24 22 23 23 22 24 22 26 27 27 27 28 28 29
20 21 22 22 21 22 21 21 19 20 21 24 25 26 25 24 22 24 25 25 26 26 25 25 28 28 29
19 19 18 18 19 21 22 20 18 19 20 22 23 23 25 28 31 24 25 25 27 28 28 26 27 30 31
17 17 18 18 21 18 19 19 19 20 21 22 22 22 20 19 28 36 28 29 29 29 30 29 28 30 32